Hourly Data Report for October 05, 2017

All times are specified in Local Standard Time (LST). Add 1 hour to adjust for Daylight Saving Time where and when it is observed.

PANGNIRTUNG
NUNAVUT

66°08'36.300" N
65°42'40.500" W
22.60 m
2403049
71826
WXP

Download Data

Hourly Data (October 2017)
Hourly Data Report for October 5, 2017
Temp Definition
°C
Dew Point Temp Definition
°C
Rel Hum Definition
%
Wind Dir Definition
10's deg

Wind Spd Definition
km/h
Visibility Definition
km
Stn Press Definition
kPa
Hmdx Definition


Wind Chill Definition


Weather Definition


TIME
00:00 -0.5 -3.6 79 15 17   99.78   -5 LegendNANA
01:00 -0.6 -3.7 79 15 26   99.80   -7 LegendNANA
02:00 -0.7 -3.3 83 14 24   99.83   -7 LegendNANA
03:00 -0.4 -3.0 83 14 27   99.83   -7 LegendNANA
04:00 0.0 -3.0 80 14 34   99.85   -7 LegendNANA
05:00 -0.6 -3.1 83 11 46   99.86   -9 LegendNANA
06:00 -0.6 -3.8 79 12 35   99.90   -8 LegendNANA
07:00 -0.1 -3.7 77 11 39   99.92   -7 LegendNANA
08:00 1.2 -4.5 66 6 23   99.92     LegendNANA
09:00 1.0 -3.6 71 10 27   99.90     LegendNANA
10:00 1.2 -3.4 71 11 29   99.87     LegendNANA
11:00 1.6 -3.5 69 11 31   99.82     LegendNANA
12:00 1.6 -3.4 69 11 18   99.83     LegendNANA
13:00 2.0 -3.4 67 12 26   99.78     LegendNANA
14:00 2.0 -3.3 68 12 30   99.75     LegendNANA
15:00 1.8 -3.2 69 11 29   99.73     LegendNANA
16:00 1.2 -2.7 75 13 22   99.73     LegendNANA
17:00 0.9 -2.7 77 14 29   99.71     LegendNANA
18:00 0.5 -2.7 79 13 25   99.68     LegendNANA
19:00 0.3 -3.0 78 11 20   99.63     LegendNANA
20:00 0.0 -3.7 76 13 19   99.61   -5 LegendNANA
21:00 0.0 -4.2 73 15 17   99.58   -5 LegendNANA
22:00 -0.1 -3.9 76 15 19   99.54   -5 LegendNANA
23:00 0.4 -4.0 72 16 13   99.47     LegendNANA

Notes on Data Quality.

Legend

  • E = Estimated
  • M = Missing
  • NA = Not Available
  • ‡ = Partner data that is not subject to review by the National Climate Archives
Date modified: